Theta_e
279 279 279 279 280 280 280 279 277 273 274 277 278 282 283 283 284 284 284 288 290 291 292 293 293 294 297 299 301 304 307 312 313 313 314 317 322 329
278 277 277 277 277 277 278 277 277 275 272 277 278 279 279 279 280 280 280 283 285 287 289 290 291 292 293 295 297 300 304 306 311 313 313 315 318 326
275 275 275 275 274 274 274 274 274 274 271 273 276 276 275 274 276 277 278 278 280 283 286 287 288 289 291 292 294 295 298 302 308 311 312 313 315 320
273 273 272 273 271 272 271 271 271 272 270 268 271 272 272 273 273 274 275 277 277 281 283 285 286 287 288 290 290 292 296 301 301 303 308 311 313 316
271 271 270 270 270 270 270 270 270 271 271 269 268 271 271 272 272 273 274 275 277 280 283 284 286 288 289 290 292 293 294 296 300 301 303 307 310 313
271 271 271 271 270 269 270 269 270 269 269 269 268 269 270 272 272 271 271 274 275 278 281 282 284 285 288 290 293 294 294 295 296 298 302 303 306 308
271 271 272 272 273 274 272 272 271 270 270 270 270 271 271 272 272 273 272 273 275 277 277 278 281 284 284 286 289 292 295 296 297 300 301 303 304 305
271 272 272 272 273 275 276 277 276 273 272 271 272 272 272 273 273 273 273 273 271 278 277 277 280 280 282 284 287 289 292 298 298 300 301 302 302 303
272 271 271 273 273 273 275 277 277 277 277 275 272 273 273 274 274 273 273 272 272 276 277 274 277 277 281 283 287 289 292 296 297 298 300 300 301 301
272 272 272 273 274 274 273 273 274 274 275 275 274 274 274 276 275 274 273 273 274 276 277 272 276 276 280 282 286 289 294 296 296 297 298 301 302 302
273 273 273 273 275 277 274 273 273 273 277 278 278 279 280 280 280 277 275 272 271 273 277 275 276 276 279 280 283 287 292 295 295 296 298 301 301 302
272 273 275 274 276 277 275 273 270 270 271 272 274 274 274 274 277 275 275 273 273 272 277 276 277 278 275 279 280 285 290 293 293 293 297 299 301 305
271 271 273 275 276 278 277 272 270 274 272 267 267 269 270 271 273 276 277 275 273 272 277 277 275 276 276 276 278 281 285 289 291 292 292 298 300 302
267 272 271 275 275 275 273 273 275 273 266 266 265 266 268 269 271 273 275 277 278 277 279 278 276 277 276 275 275 280 283 287 288 288 290 294 300 301
272 272 273 273 272 270 271 272 270 266 266 264 264 266 269 270 271 271 272 274 275 277 280 280 279 278 278 276 276 279 282 286 287 287 288 291 303 304
270 265 268 268 268 268 266 267 266 266 266 265 265 267 269 269 268 270 269 271 271 272 278 281 281 280 278 277 278 277 281 282 286 287 287 288 292 307
258 256 257 261 262 263 263 264 265 265 265 265 265 265 267 268 267 269 269 269 267 268 271 276 283 282 281 280 278 281 282 283 286 286 286 286 289 307
256 252 255 259 260 261 261 262 263 264 264 265 265 266 266 266 267 268 267 266 266 267 269 273 278 282 281 281 283 281 282 284 285 286 286 285 287 302
252 250 253 256 258 260 260 261 261 263 264 264 264 265 267 267 266 265 265 265 264 265 267 270 274 279 279 277 282 286 282 284 285 285 286 286 288 291
248 247 248 251 256 257 258 259 260 261 262 263 263 265 267 267 265 264 264 263 263 264 264 266 269 273 277 280 281 284 287 286 286 285 287 289 292 297
247 246 248 251 255 256 257 258 259 260 261 262 263 264 267 266 264 264 264 264 264 263 263 264 268 273 276 277 281 283 286 287 288 288 289 290 296 303
249 246 249 249 251 253 255 257 258 259 260 262 263 266 267 266 264 264 264 263 263 264 264 266 268 270 271 274 277 283 284 287 289 288 288 290 301 300
246 246 248 247 251 253 254 256 257 259 260 263 263 266 266 264 265 265 264 264 264 263 264 264 266 269 270 273 277 282 285 286 287 289 292 290 289 296
Wind_Speed
4 4 4 3 3 2 2 3 7 13 17 3 6 4 6 8 14 16 17 24 30 31 32 34 37 39 37 35 35 34 34 32 32 29 29 30 28 35
3 4 3 1 2 2 3 4 4 9 18 9 11 13 13 12 15 18 19 31 32 32 34 35 36 37 37 39 38 36 35 34 32 32 31 30 30 28
3 4 5 3 3 3 3 4 6 7 14 24 12 13 17 18 15 15 17 18 17 31 33 34 35 36 37 38 37 39 38 37 32 31 31 31 32 32
5 5 5 4 3 5 4 7 8 8 11 24 18 16 17 17 17 19 16 15 16 26 34 35 36 37 38 39 41 41 38 35 36 35 32 33 34 33
5 6 6 5 7 6 7 7 8 10 10 14 22 15 16 15 16 17 18 19 15 28 32 32 33 33 34 37 38 37 37 36 31 31 34 33 33 33
6 6 7 9 9 9 8 10 11 11 12 14 17 18 15 16 15 15 18 14 16 14 21 26 31 33 35 34 34 35 36 37 37 36 37 36 35 34
6 7 8 10 16 16 10 10 12 11 11 13 15 16 16 15 16 12 16 17 16 13 15 14 13 12 12 24 26 33 37 38 34 35 33 29 31 32
6 7 8 10 15 22 23 25 22 15 16 14 16 17 22 17 16 16 16 17 21 8 14 14 11 14 14 13 29 37 38 36 34 31 27 31 34 32
7 8 9 9 12 13 19 26 24 28 31 22 23 21 24 19 19 21 20 20 21 13 14 20 12 17 14 14 31 34 35 25 24 28 34 35 36 34
8 9 11 12 12 13 16 15 17 18 19 17 21 24 22 21 20 21 23 24 22 17 13 23 12 17 13 14 30 32 32 27 24 27 35 37 36 35
8 9 10 12 16 22 16 16 17 18 18 29 35 38 39 39 35 18 15 16 19 20 13 17 14 15 13 14 16 31 32 27 28 30 34 32 36 35
7 10 12 15 19 23 15 15 15 17 18 17 16 16 23 24 36 27 19 19 17 22 14 15 12 8 14 13 16 14 12 17 17 17 28 33 29 14
5 4 6 17 21 23 24 11 14 22 18 14 15 13 14 16 14 15 17 17 18 21 15 17 16 14 15 17 14 16 14 11 9 10 18 33 32 24
4 3 7 18 22 22 17 21 26 22 11 12 13 13 14 14 13 14 19 19 18 24 19 20 15 15 14 16 17 14 14 14 8 10 11 23 34 32
3 7 14 16 17 14 18 22 17 10 11 12 14 14 14 15 19 18 18 22 23 22 18 24 20 19 16 16 15 14 16 12 8 10 15 13 14 15
1 2 7 10 12 12 9 11 9 9 11 13 13 14 15 15 14 13 15 14 15 16 19 22 25 22 17 16 16 17 15 15 7 10 13 14 17 17
3 2 3 4 5 6 7 8 9 10 11 12 13 14 15 15 15 13 14 14 16 16 16 15 18 23 19 21 18 14 12 14 13 14 12 13 14 18
3 1 3 4 5 7 8 9 9 12 11 13 14 14 15 15 15 13 14 14 15 15 15 15 15 12 13 18 26 16 15 15 13 14 12 11 14 16
2 0 4 3 6 7 8 9 11 11 15 13 14 16 16 15 18 15 14 14 15 14 15 15 14 16 14 15 10 35 17 16 14 13 13 13 13 15
1 0 4 3 6 7 8 9 10 11 12 14 15 16 16 16 16 15 14 15 15 15 15 15 13 14 15 12 12 12 29 17 14 14 13 11 16 34
0 2 4 4 6 7 8 9 10 11 13 14 14 16 17 16 17 16 16 21 21 15 17 17 14 20 15 15 16 16 14 26 23 15 12 14 16 15
0 3 4 5 5 7 8 8 10 11 13 13 15 15 17 16 17 18 16 17 16 14 16 16 15 13 13 15 17 18 14 12 19 35 39 30 14 14
2 3 5 4 4 7 7 8 10 11 13 14 15 16 18 18 17 16 17 16 16 16 15 15 13 13 15 14 17 15 16 16 13 14 15 31 40 15
Wind_Direction
229 241 241 244 251 290 318 305 297 307 302 6 318 22 334 328 310 307 301 296 296 294 293 290 290 288 282 281 281 280 275 267 261 262 265 265 267 234
227 241 237 247 340 359 325 306 294 286 288 306 296 312 315 310 308 308 301 296 296 294 289 288 287 285 282 278 276 276 277 272 270 261 257 262 259 259
253 254 275 314 320 307 298 278 269 265 271 290 290 300 300 301 303 303 296 289 285 284 282 282 283 283 281 278 273 268 272 269 269 268 255 257 257 256
258 264 278 296 285 271 267 266 261 267 271 282 294 297 295 301 295 291 287 282 284 282 283 281 278 275 273 272 269 267 264 261 257 263 262 251 253 245
250 264 278 277 264 254 249 257 262 259 262 273 286 288 293 293 291 285 286 287 280 280 281 281 280 278 280 278 271 261 261 261 260 260 255 251 250 250
241 255 262 261 258 260 256 252 253 252 252 257 268 282 281 285 279 287 286 277 282 280 282 284 283 282 279 277 283 270 253 252 254 254 253 244 244 247
242 249 252 253 260 257 255 256 255 256 255 258 264 271 277 281 279 283 280 288 277 280 283 282 275 279 292 298 295 276 255 250 248 251 239 240 241 242
246 257 257 258 263 267 271 277 277 277 272 272 277 277 279 280 280 280 282 283 286 275 286 279 286 285 282 282 287 288 298 240 234 238 239 235 238 241
249 263 267 264 261 265 273 279 282 279 276 278 278 275 282 281 282 279 276 277 277 283 276 281 281 278 281 278 280 280 270 266 259 255 243 238 239 238
249 256 263 271 272 283 278 275 272 270 271 267 265 271 268 272 262 263 265 266 271 268 256 270 268 268 274 270 272 275 274 271 272 265 258 238 235 232
250 261 262 269 281 287 289 288 292 288 283 287 286 283 280 281 281 277 268 257 264 268 245 250 260 266 266 274 277 270 268 262 269 261 254 243 231 236
240 261 260 279 290 292 295 300 301 302 294 293 306 306 297 286 281 269 270 265 267 272 258 278 277 276 284 272 274 255 248 255 266 286 271 241 235 235
231 233 260 282 290 307 308 313 298 301 318 319 300 296 293 285 284 284 258 250 254 258 260 258 260 261 257 275 281 277 279 273 267 276 287 263 236 220
190 254 265 289 313 311 317 308 310 319 310 304 300 293 295 294 289 288 290 281 270 261 255 248 256 251 250 257 263 267 258 253 244 273 283 271 229 221
154 272 318 313 319 314 309 315 319 303 301 302 297 295 298 298 294 288 284 276 273 270 263 250 247 247 242 248 258 257 258 247 239 262 268 268 223 212
46 323 327 325 309 307 302 308 300 299 300 293 296 296 296 298 295 292 291 286 286 284 274 256 244 241 243 239 242 249 253 252 235 242 266 274 291 205
113 34 341 304 311 319 310 309 304 302 298 294 303 295 298 299 295 293 285 291 283 283 283 275 254 230 231 233 237 236 240 252 250 256 258 275 275 217
60 59 286 291 324 309 312 312 305 303 301 303 304 292 304 302 300 301 293 285 284 282 278 280 283 244 225 231 224 240 243 246 247 247 241 250 266 249
115 253 263 296 299 298 302 304 307 305 309 302 305 296 303 308 310 303 295 289 284 282 279 278 280 279 238 244 236 212 235 241 247 242 239 231 246 263
184 164 270 284 286 287 298 298 304 304 310 303 307 300 307 312 309 304 297 293 288 286 282 277 271 272 281 274 260 245 213 229 229 242 240 241 244 241
80 277 250 265 274 293 290 295 298 302 305 301 306 301 314 314 309 304 298 299 292 285 280 277 271 278 281 288 266 242 236 222 236 243 244 243 246 178
217 256 276 258 271 279 284 294 307 308 307 305 311 305 318 315 310 308 306 302 294 285 278 277 282 275 263 263 272 258 249 241 231 230 235 233 238 173
251 256 268 254 272 276 287 303 308 303 302 306 308 319 321 317 315 310 308 300 297 292 283 279 276 264 262 257 257 265 248 255 252 249 246 230 234 175